M I D A S
Marine Information and Data Acquisition System
Tripno 1913 of the Zeeleeuw from 2010-07-02 05:35:35 to 2010-07-02 16:30:11
Back to CruiseResearch ActivitiesStationsMapUnderway DataData graphs

EquipmentUnitsComments
TimeDGPSUTC
LatitudeDGPSDM.mWGS84
LongitudeDGPSDM.mWGS84
SpeedMeteo Stationm/sRelative wind speed
DirectionMeteo StationdegRelative wind direction
TemperatureMeteo Stationdeg CelciusAir temperature
PressureMeteo StationPaAtmospheric pressure
HumidityMeteo Station%Relative humidity
Missing or incorrect values are displayed as -999
Metereological data collected by the RV Zeeleeuw from 2010-07-02 05:37:34 to 2010-07-02 16:40:22
                                                                                    Next 1000 lines
Time Latitude Longitude Speed Direction Temperature Pressure Humidity
2010-07-02 05:37:45 51°13.662 2°55.958 2.7 7 22.7 101060 40
2010-07-02 05:37:50 51°13.662 2°55.955 2.2 11 22.7 101060 41
2010-07-02 05:37:54 51°13.663 2°55.953 3.2 11 22.7 101060 41
2010-07-02 05:38:00 51°13.664 2°55.949 2.5 19 22.7 101070 40
2010-07-02 05:38:06 51°13.666 2°55.944 2.2 13 22.7 101070 40
2010-07-02 05:38:11 51°13.667 2°55.94 1.5 11 22.6 101070 42
2010-07-02 05:38:17 51°13.668 2°55.934 1.3 20 22.6 101070 42
2010-07-02 05:38:22 51°13.67 2°55.929 1.1 28 22.7 101070 39
2010-07-02 05:38:29 51°13.672 2°55.921 1.9 19 22.7 101070 39
2010-07-02 05:38:34 51°13.673 2°55.916 1.4 32 22.7 101070 42
2010-07-02 05:38:39 51°13.675 2°55.91 1.2 6 22.7 101070 42
2010-07-02 05:38:44 51°13.676 2°55.903 1.8 23 22.7 101070 41
2010-07-02 05:38:49 51°13.677 2°55.897 0.8 1 22.7 101070 41
2010-07-02 05:38:53 51°13.679 2°55.891 2.3 278 22.7 101080 41
2010-07-02 05:38:58 51°13.68 2°55.884 1.1 15 22.7 101080 41
2010-07-02 05:39:03 51°13.681 2°55.877 0.2 10 22.7 101080 40
2010-07-02 05:39:09 51°13.683 2°55.868 0.2 36 22.7 101080 40
2010-07-02 05:39:13 51°13.684 2°55.861 0.8 84 22.7 101070 41
2010-07-02 05:39:18 51°13.686 2°55.853 0.6 24 22.7 101070 41
2010-07-02 05:39:23 51°13.687 2°55.845 0.8 75 22.7 101070 41
2010-07-02 05:39:28 51°13.688 2°55.837 1.2 40 22.7 101070 41
2010-07-02 05:39:33 51°13.689 2°55.83 2.4 75 22.7 101070 41
2010-07-02 05:39:39 51°13.691 2°55.82 2.4 36 22.7 101070 41
2010-07-02 05:39:44 51°13.692 2°55.812 3.6 37 22.7 101080 41
2010-07-02 05:39:49 51°13.692 2°55.804 2.9 35 22.7 101080 41
2010-07-02 05:39:54 51°13.693 2°55.795 3.5 42 22.7 101080 41
2010-07-02 05:39:59 51°13.694 2°55.787 3.6 40 22.7 101080 41
2010-07-02 05:40:04 51°13.695 2°55.779 3.7 82 22.7 101080 41
2010-07-02 05:40:09 51°13.695 2°55.771 3.1 45 22.7 101080 41
2010-07-02 05:40:14 51°13.696 2°55.763 3.6 43 22.7 101080 41
2010-07-02 05:40:19 51°13.696 2°55.756 3.7 40 22.7 101080 41
2010-07-02 05:40:24 51°13.696 2°55.749 3.1 82 22.7 101090 42
2010-07-02 05:40:29 51°13.696 2°55.744 3.2 38 22.7 101090 42
2010-07-02 05:40:34 51°13.696 2°55.739 3.2 40 22.7 101090 42
2010-07-02 05:40:39 51°13.696 2°55.734 3.4 43 22.7 101090 42
2010-07-02 05:40:43 51°13.696 2°55.731 3.3 25 22.8 101090 41
2010-07-02 05:40:48 51°13.696 2°55.728 2.9 36 22.8 101090 41
2010-07-02 05:40:53 51°13.696 2°55.727 2.4 79 22.7 101080 40
2010-07-02 05:40:58 51°13.698 2°55.728 2.8 36 22.7 101080 40
2010-07-02 05:41:03 51°13.699 2°55.729 2.9 82 22.7 101090 41
2010-07-02 05:41:07 51°13.7 2°55.73 2.6 40 22.7 101090 41
2010-07-02 05:41:12 51°13.702 2°55.731 3.2 75 22.7 101090 40
2010-07-02 05:41:17 51°13.704 2°55.733 2.7 40 22.7 101090 40
2010-07-02 05:41:22 51°13.707 2°55.734 2.8 75 22.7 101090 41
2010-07-02 05:41:28 51°13.711 2°55.736 1.3 36 22.7 101090 41
2010-07-02 05:41:33 51°13.714 2°55.737 1.9 74 22.7 101090 41
2010-07-02 05:41:38 51°13.718 2°55.737 2.6 40 22.7 101090 41
2010-07-02 05:41:43 51°13.722 2°55.736 3.1 25 22.7 101090 40
2010-07-02 05:41:48 51°13.727 2°55.735 2.6 273 22.7 101090 40
2010-07-02 05:41:52 51°13.731 2°55.733 2.2 266 22.7 101090 41
2010-07-02 05:41:57 51°13.736 2°55.73 1.4 265 22.7 101090 41
2010-07-02 05:42:02 51°13.741 2°55.726 2.7 285 22.7 101090 41
2010-07-02 05:42:07 51°13.746 2°55.722 2 258 22.7 101090 41
2010-07-02 05:42:12 51°13.752 2°55.717 0.2 277 22.7 101090 41
2010-07-02 05:42:16 51°13.756 2°55.713 0.5 267 22.7 101090 41
2010-07-02 05:42:21 51°13.762 2°55.707 2.7 286 22.7 101080 41
2010-07-02 05:42:26 51°13.768 2°55.7 1.9 248 22.7 101080 41
2010-07-02 05:42:31 51°13.774 2°55.694 3.2 276 22.7 101090 41
2010-07-02 05:42:36 51°13.78 2°55.686 2.7 259 22.7 101090 41
2010-07-02 05:42:40 51°13.785 2°55.681 2.7 245 22.7 101090 42
2010-07-02 05:42:45 51°13.792 2°55.673 3.7 257 22.7 101090 42
2010-07-02 05:42:50 51°13.8 2°55.665 2.9 278 22.7 101090 42
2010-07-02 05:42:55 51°13.807 2°55.658 1.5 262 22.7 101090 42
2010-07-02 05:43:00 51°13.814 2°55.65 2.1 285 22.8 101090 40
2010-07-02 05:43:04 51°13.82 2°55.644 2.4 242 22.8 101090 40
2010-07-02 05:43:10 51°13.83 2°55.635 3.8 278 22.8 101090 41
2010-07-02 05:43:15 51°13.838 2°55.627 3.4 249 22.8 101090 41
2010-07-02 05:43:20 51°13.847 2°55.62 2.9 284 22.8 101090 41
2010-07-02 05:43:25 51°13.855 2°55.613 2.6 253 22.8 101090 41
2010-07-02 05:43:30 51°13.864 2°55.606 1.2 281 22.8 101090 41
2010-07-02 05:43:35 51°13.873 2°55.599 0.2 259 22.8 101090 41
2010-07-02 05:43:40 51°13.882 2°55.593 2.7 252 22.8 101090 40
2010-07-02 05:43:44 51°13.889 2°55.587 2.2 255 22.8 101090 40
2010-07-02 05:43:50 51°13.9 2°55.579 1.7 278 22.8 101090 41
2010-07-02 05:43:55 51°13.909 2°55.572 1.1 241 22.8 101090 41
2010-07-02 05:44:00 51°13.918 2°55.565 0.1 280 22.8 101090 40
2010-07-02 05:44:05 51°13.928 2°55.558 0.1 233 22.8 101090 40
2010-07-02 05:44:10 51°13.937 2°55.551 -999 281 22.8 101090 41
2010-07-02 05:44:15 51°13.947 2°55.544 -999 37 22.8 101090 41
2010-07-02 05:44:20 51°13.957 2°55.537 -999 281 22.8 101090 41
2010-07-02 05:44:25 51°13.967 2°55.529 0.1 241 22.8 101090 41
2010-07-02 05:44:30 51°13.977 2°55.522 0.1 282 22.8 101090 41
2010-07-02 05:44:35 51°13.987 2°55.515 0.1 247 22.8 101090 41
2010-07-02 05:44:40 51°13.997 2°55.507 -999 255 22.8 101090 41
2010-07-02 05:44:44 51°14.005 2°55.501 -999 268 22.8 101090 41
2010-07-02 05:44:50 51°14.018 2°55.492 1.6 284 22.8 101090 41
2010-07-02 05:44:56 51°14.03 2°55.483 2.7 256 22.8 101090 41
2010-07-02 05:45:00 51°14.038 2°55.477 1 277 22.8 101090 41
2010-07-02 05:45:04 51°14.046 2°55.47 1.9 249 22.8 101090 41
2010-07-02 05:45:10 51°14.059 2°55.461 2.1 283 22.8 101090 41
2010-07-02 05:45:15 51°14.069 2°55.454 1.7 239 22.8 101090 41
2010-07-02 05:45:20 51°14.079 2°55.446 1.6 285 22.8 101090 41
2010-07-02 05:45:25 51°14.09 2°55.437 1.8 239 22.8 101090 41
2010-07-02 05:45:30 51°14.1 2°55.429 2 281 22.8 101090 41
2010-07-02 05:45:36 51°14.113 2°55.419 1 249 22.8 101090 41
2010-07-02 05:45:40 51°14.121 2°55.413 0.9 248 22.8 101090 41
2010-07-02 05:45:45 51°14.131 2°55.404 0.5 245 22.8 101090 41
2010-07-02 05:45:50 51°14.142 2°55.396 0.1 281 22.8 101090 41
2010-07-02 05:45:55 51°14.152 2°55.387 1.6 235 22.8 101090 41
2010-07-02 05:46:00 51°14.163 2°55.378 2 276 22.9 101090 41
2010-07-02 05:46:05 51°14.173 2°55.369 2.5 253 22.9 101090 41
2010-07-02 05:46:10 51°14.184 2°55.359 1.7 282 22.9 101090 41
2010-07-02 05:46:16 51°14.196 2°55.346 2 242 22.9 101090 41
2010-07-02 05:46:20 51°14.205 2°55.337 3.4 280 22.9 101090 40
2010-07-02 05:46:25 51°14.215 2°55.326 3.5 327 22.9 101090 40
2010-07-02 05:46:30 51°14.226 2°55.314 3.5 280 22.9 101090 41
2010-07-02 05:46:35 51°14.237 2°55.302 3.6 32 22.9 101090 41
2010-07-02 05:46:40 51°14.248 2°55.29 2.9 22 22.9 101090 41
2010-07-02 05:46:45 51°14.26 2°55.278 4.7 319 22.9 101090 41
2010-07-02 05:46:50 51°14.272 2°55.267 3.4 283 22.9 101090 41
2010-07-02 05:46:55 51°14.284 2°55.255 3.6 234 22.9 101090 41
2010-07-02 05:47:00 51°14.297 2°55.243 4.2 284 22.9 101080 42
2010-07-02 05:47:04 51°14.307 2°55.233 5 37 22.9 101080 42
2010-07-02 05:47:10 51°14.322 2°55.219 5.5 278 22.9 101080 40
2010-07-02 05:47:15 51°14.334 2°55.207 5 244 22.9 101080 40
2010-07-02 05:47:20 51°14.347 2°55.196 4.4 277 22.8 101080 41
2010-07-02 05:47:25 51°14.36 2°55.184 5.2 237 22.8 101080 41
2010-07-02 05:47:30 51°14.373 2°55.172 3.7 281 22.9 101080 42
2010-07-02 05:47:35 51°14.386 2°55.161 4.8 236 22.9 101080 42
2010-07-02 05:47:40 51°14.4 2°55.149 4.5 23 22.8 101080 41
2010-07-02 05:47:45 51°14.413 2°55.137 4.7 34 22.8 101080 41
2010-07-02 05:47:50 51°14.426 2°55.126 4 279 22.8 101080 41
2010-07-02 05:47:56 51°14.441 2°55.112 4.8 241 22.8 101080 41
2010-07-02 05:48:00 51°14.452 2°55.103 4.6 283 22.8 101080 41
2010-07-02 05:48:05 51°14.465 2°55.091 4.4 240 22.8 101080 41
2010-07-02 05:48:10 51°14.478 2°55.079 4.9 283 22.8 101080 41
2010-07-02 05:48:15 51°14.491 2°55.067 5.4 240 22.8 101080 41
2010-07-02 05:48:20 51°14.504 2°55.055 5.6 283 22.8 101080 41
2010-07-02 05:48:25 51°14.518 2°55.042 4.1 245 22.8 101080 41
2010-07-02 05:48:30 51°14.532 2°55.029 4.2 285 22.8 101080 42
2010-07-02 05:48:35 51°14.546 2°55.017 4 238 22.8 101080 42
2010-07-02 05:48:40 51°14.56 2°55.005 4.6 29 22.7 101080 42
2010-07-02 05:48:45 51°14.574 2°54.991 3.8 34 22.7 101080 42
2010-07-02 05:48:50 51°14.588 2°54.978 3.8 282 22.7 101080 41
2010-07-02 05:48:55 51°14.602 2°54.965 4.1 239 22.7 101080 41
2010-07-02 05:49:00 51°14.617 2°54.952 4.2 283 22.7 101080 41
2010-07-02 05:49:05 51°14.631 2°54.939 3.5 240 22.7 101080 41
2010-07-02 05:49:10 51°14.646 2°54.927 3.6 277 22.7 101080 41
2010-07-02 05:49:15 51°14.661 2°54.914 3.6 239 22.7 101080 41
2010-07-02 05:49:20 51°14.676 2°54.901 3.2 27 22.7 101080 41
2010-07-02 05:49:25 51°14.691 2°54.887 3.6 243 22.7 101080 41
2010-07-02 05:49:30 51°14.706 2°54.873 4.2 30 22.7 101080 43
2010-07-02 05:49:35 51°14.721 2°54.858 4 35 22.7 101080 43
2010-07-02 05:49:40 51°14.737 2°54.843 4.2 31 22.6 101080 42
2010-07-02 05:49:45 51°14.752 2°54.828 4.2 231 22.6 101080 42
2010-07-02 05:49:50 51°14.768 2°54.813 3.7 28 22.6 101080 42
2010-07-02 05:49:55 51°14.784 2°54.797 4.4 33 22.6 101080 42
2010-07-02 05:50:00 51°14.8 2°54.781 4.4 26 22.6 101070 42
2010-07-02 05:50:05 51°14.816 2°54.764 4.7 35 22.6 101070 42
2010-07-02 05:50:10 51°14.832 2°54.747 4.9 284 22.6 101080 42
2010-07-02 05:50:15 51°14.848 2°54.73 4.9 35 22.6 101080 42
2010-07-02 05:50:20 51°14.863 2°54.713 5.8 29 22.6 101080 42
2010-07-02 05:50:25 51°14.879 2°54.696 4.8 34 22.6 101080 42
2010-07-02 05:50:30 51°14.895 2°54.679 5.3 24 22.5 101080 42
2010-07-02 05:50:35 51°14.91 2°54.662 4.9 234 22.5 101080 42
2010-07-02 05:50:40 51°14.926 2°54.645 4.9 22 22.5 101080 42
2010-07-02 05:50:45 51°14.943 2°54.629 4.7 35 22.5 101080 42
2010-07-02 05:50:50 51°14.958 2°54.612 4.9 24 22.5 101070 43
2010-07-02 05:50:56 51°14.977 2°54.591 4.8 34 22.5 101070 43
2010-07-02 05:51:00 51°14.989 2°54.577 5.2 28 22.4 101070 43
2010-07-02 05:51:05 51°15.005 2°54.559 4.7 34 22.4 101070 43
2010-07-02 05:51:10 51°15.02 2°54.541 6.1 27 22.4 101080 42
2010-07-02 05:51:15 51°15.036 2°54.524 4.6 235 22.4 101080 42
2010-07-02 05:51:20 51°15.051 2°54.506 4.6 22 22.4 101070 43
2010-07-02 05:51:25 51°15.067 2°54.488 4.9 238 22.4 101070 43
2010-07-02 05:51:30 51°15.083 2°54.471 4.2 23 22.4 101080 43
2010-07-02 05:51:35 51°15.099 2°54.453 4.5 238 22.4 101080 43
2010-07-02 05:51:40 51°15.114 2°54.435 4.5 24 22.4 101080 41
2010-07-02 05:51:45 51°15.129 2°54.417 4.6 237 22.4 101080 41
2010-07-02 05:51:50 51°15.144 2°54.398 5.2 23 22.3 101070 42
2010-07-02 05:51:56 51°15.163 2°54.376 4.6 237 22.3 101070 42
2010-07-02 05:52:00 51°15.175 2°54.361 4.8 31 22.3 101080 44
2010-07-02 05:52:05 51°15.19 2°54.342 4.4 237 22.3 101080 44
2010-07-02 05:52:10 51°15.205 2°54.324 4.6 31 22.3 101080 42
2010-07-02 05:52:15 51°15.22 2°54.305 5 241 22.3 101080 42
2010-07-02 05:52:20 51°15.236 2°54.287 4.6 28 22.3 101080 44
2010-07-02 05:52:25 51°15.251 2°54.268 5.1 236 22.3 101080 44
2010-07-02 05:52:30 51°15.267 2°54.25 4.4 277 22.3 101070 43
2010-07-02 05:52:35 51°15.282 2°54.232 4.4 34 22.3 101070 43
2010-07-02 05:52:40 51°15.297 2°54.214 4.9 30 22.2 101080 43
2010-07-02 05:52:45 51°15.312 2°54.195 4.8 33 22.2 101080 43
2010-07-02 05:52:50 51°15.328 2°54.177 4.9 30 22.2 101080 44
2010-07-02 05:52:55 51°15.343 2°54.159 4.6 236 22.2 101080 44
2010-07-02 05:53:00 51°15.358 2°54.14 4.5 31 22.2 101080 43
2010-07-02 05:53:05 51°15.374 2°54.122 4.6 239 22.2 101080 43
2010-07-02 05:53:10 51°15.389 2°54.104 5.1 31 22.2 101070 44
2010-07-02 05:53:16 51°15.408 2°54.083 4.8 237 22.2 101070 44
2010-07-02 05:53:20 51°15.42 2°54.068 4.8 23 22.1 101070 43
2010-07-02 05:53:25 51°15.435 2°54.05 4.7 239 22.1 101070 43
2010-07-02 05:53:30 51°15.45 2°54.031 4.7 23 22.1 101080 44
2010-07-02 05:53:35 51°15.465 2°54.012 4.8 236 22.1 101080 44
2010-07-02 05:53:40 51°15.481 2°53.994 4.6 23 22.1 101080 44
2010-07-02 05:53:45 51°15.496 2°53.976 4.4 239 22.1 101080 44
2010-07-02 05:53:50 51°15.511 2°53.957 4.7 25 22 101080 43
2010-07-02 05:53:56 51°15.529 2°53.935 4.7 240 22 101080 43
2010-07-02 05:54:00 51°15.541 2°53.92 4.6 21 22 101070 44
2010-07-02 05:54:04 51°15.553 2°53.905 5 238 22 101070 44
2010-07-02 05:54:10 51°15.572 2°53.883 4.8 21 22 101080 43
2010-07-02 05:54:16 51°15.59 2°53.862 4.9 239 22 101080 43
2010-07-02 05:54:20 51°15.603 2°53.847 4.9 22 22 101070 43
2010-07-02 05:54:24 51°15.615 2°53.833 4.8 239 22 101070 43
2010-07-02 05:54:30 51°15.633 2°53.811 5.3 30 21.9 101080 44
2010-07-02 05:54:35 51°15.648 2°53.792 5.2 237 21.9 101080 44
2010-07-02 05:54:40 51°15.663 2°53.773 4.9 21 21.9 101080 43
2010-07-02 05:54:45 51°15.678 2°53.754 4.8 36 21.9 101080 43
2010-07-02 05:54:50 51°15.693 2°53.736 4.4 29 21.9 101080 45
2010-07-02 05:54:56 51°15.711 2°53.713 4.1 32 21.9 101080 45
2010-07-02 05:55:00 51°15.723 2°53.698 5.3 21 21.9 101080 44
2010-07-02 05:55:04 51°15.735 2°53.683 4.7 38 21.9 101080 44
2010-07-02 05:55:10 51°15.752 2°53.66 5.3 29 21.9 101080 45
2010-07-02 05:55:16 51°15.77 2°53.638 4.4 235 21.9 101080 45
2010-07-02 05:55:20 51°15.782 2°53.623 5 28 21.9 101080 44
2010-07-02 05:55:24 51°15.794 2°53.608 5.1 34 21.9 101080 44
2010-07-02 05:55:30 51°15.812 2°53.585 4.9 24 21.8 101080 44
2010-07-02 05:55:36 51°15.83 2°53.562 4.7 33 21.8 101080 44
2010-07-02 05:55:40 51°15.841 2°53.547 5.1 23 21.8 101080 45
2010-07-02 05:55:45 51°15.857 2°53.528 4.5 235 21.8 101080 45
2010-07-02 05:55:50 51°15.872 2°53.51 4.5 29 21.8 101080 44
2010-07-02 05:55:55 51°15.887 2°53.493 4.3 233 21.8 101080 44
2010-07-02 05:56:00 51°15.904 2°53.476 3.8 21 21.7 101080 44
2010-07-02 05:56:05 51°15.92 2°53.46 4.4 34 21.7 101080 44
2010-07-02 05:56:10 51°15.937 2°53.445 3.7 26 21.7 101080 44
2010-07-02 05:56:15 51°15.954 2°53.43 4.2 235 21.7 101080 44
2010-07-02 05:56:20 51°15.97 2°53.415 4 25 21.7 101080 45
2010-07-02 05:56:25 51°15.987 2°53.4 3.8 33 21.7 101080 45
2010-07-02 05:56:30 51°16.005 2°53.386 3.9 279 21.7 101080 44
2010-07-02 05:56:35 51°16.022 2°53.372 3.8 35 21.7 101080 44
2010-07-02 05:56:40 51°16.039 2°53.358 3.5 29 21.6 101080 46
2010-07-02 05:56:45 51°16.057 2°53.345 3.3 33 21.6 101080 46
2010-07-02 05:56:50 51°16.074 2°53.332 3.4 276 21.6 101080 46
2010-07-02 05:56:55 51°16.092 2°53.319 3.1 40 21.6 101080 46
2010-07-02 05:57:00 51°16.11 2°53.306 2.9 22 21.6 101070 45
2010-07-02 05:57:04 51°16.125 2°53.296 3.3 35 21.6 101070 45
2010-07-02 05:57:10 51°16.146 2°53.282 3.1 278 21.6 101080 45
2010-07-02 05:57:15 51°16.164 2°53.27 3 38 21.6 101080 45
2010-07-02 05:57:20 51°16.183 2°53.259 2.8 27 21.5 101080 46
2010-07-02 05:57:25 51°16.201 2°53.247 2.7 36 21.5 101080 46
2010-07-02 05:57:30 51°16.22 2°53.237 2.5 31 21.5 101080 45
2010-07-02 05:57:36 51°16.241 2°53.223 2.9 34 21.5 101080 45
2010-07-02 05:57:40 51°16.256 2°53.214 2.7 24 21.5 101080 45
2010-07-02 05:57:45 51°16.274 2°53.202 3.4 36 21.5 101080 45
2010-07-02 05:57:50 51°16.292 2°53.191 2.8 31 21.5 101080 45
2010-07-02 05:57:55 51°16.31 2°53.179 2.5 233 21.5 101080 45
2010-07-02 05:58:00 51°16.328 2°53.168 3.2 27 21.5 101080 46
2010-07-02 05:58:05 51°16.346 2°53.156 2.8 32 21.5 101080 46
2010-07-02 05:58:10 51°16.364 2°53.145 2.8 23 21.4 101080 45
2010-07-02 05:58:15 51°16.382 2°53.133 2.9 40 21.4 101080 45
2010-07-02 05:58:20 51°16.4 2°53.121 3.2 25 21.4 101080 46
2010-07-02 05:58:25 51°16.418 2°53.109 3 33 21.4 101080 46
2010-07-02 05:58:30 51°16.436 2°53.097 3.1 24 21.4 101080 45
2010-07-02 05:58:35 51°16.454 2°53.086 2.9 32 21.4 101080 45
2010-07-02 05:58:40 51°16.473 2°53.074 2.8 27 21.4 101080 46
2010-07-02 05:58:45 51°16.491 2°53.062 2.7 232 21.4 101080 46
2010-07-02 05:58:50 51°16.509 2°53.051 2.9 27 21.4 101080 45
2010-07-02 05:58:56 51°16.53 2°53.036 3 40 21.4 101080 45
2010-07-02 05:59:00 51°16.545 2°53.027 2.9 24 21.4 101080 45
2010-07-02 05:59:05 51°16.563 2°53.015 3 231 21.4 101080 45
2010-07-02 05:59:10 51°16.581 2°53.003 2.5 24 21.4 101080 45
2010-07-02 05:59:15 51°16.598 2°52.991 2.8 41 21.4 101080 45
2010-07-02 05:59:20 51°16.617 2°52.98 2.7 31 21.4 101070 46
2010-07-02 05:59:25 51°16.635 2°52.969 2.5 231 21.4 101070 46
2010-07-02 05:59:30 51°16.654 2°52.959 3.1 284 21.3 101080 46
2010-07-02 05:59:35 51°16.672 2°52.948 2.2 33 21.3 101080 46
2010-07-02 05:59:40 51°16.691 2°52.939 2.2 25 21.3 101080 45
2010-07-02 05:59:45 51°16.709 2°52.929 2.4 35 21.3 101080 45
2010-07-02 05:59:50 51°16.728 2°52.92 2.3 24 21.3 101080 45
2010-07-02 05:59:56 51°16.751 2°52.908 2.3 234 21.3 101080 45
2010-07-02 06:00:00 51°16.766 2°52.901 2.4 21 21.3 101080 45
2010-07-02 06:00:05 51°16.784 2°52.891 2.2 232 21.3 101080 45
2010-07-02 06:00:10 51°16.803 2°52.882 2.2 21 21.3 101080 44
2010-07-02 06:00:15 51°16.822 2°52.873 2.5 33 21.3 101080 44
2010-07-02 06:00:20 51°16.84 2°52.864 2.8 282 21.3 101080 45
2010-07-02 06:00:25 51°16.859 2°52.855 2.2 230 21.3 101080 45
2010-07-02 06:00:30 51°16.878 2°52.846 2.4 22 21.3 101080 45
2010-07-02 06:00:35 51°16.896 2°52.837 2.3 35 21.3 101080 45
2010-07-02 06:00:40 51°16.915 2°52.827 2.8 25 21.3 101080 45
2010-07-02 06:00:45 51°16.934 2°52.818 2.3 235 21.3 101080 45
2010-07-02 06:00:50 51°16.953 2°52.809 2.5 23 21.3 101080 45
2010-07-02 06:00:56 51°16.976 2°52.797 2.2 36 21.3 101080 45
2010-07-02 06:01:00 51°16.991 2°52.79 2.2 31 21.2 101080 46
2010-07-02 06:01:04 51°17.006 2°52.782 2.2 33 21.2 101080 46
2010-07-02 06:01:10 51°17.029 2°52.773 2 315 21.2 101080 46
2010-07-02 06:01:16 51°17.052 2°52.763 2.1 35 21.2 101080 46
2010-07-02 06:01:20 51°17.068 2°52.757 2.1 316 21.2 101080 46
2010-07-02 06:01:24 51°17.083 2°52.75 2.2 37 21.2 101080 46
2010-07-02 06:01:30 51°17.106 2°52.742 2.1 27 21.2 101080 47
2010-07-02 06:01:35 51°17.126 2°52.734 2 36 21.2 101080 47
2010-07-02 06:01:40 51°17.145 2°52.727 1.9 25 21.2 101080 47
2010-07-02 06:01:45 51°17.164 2°52.719 2 36 21.2 101080 47
2010-07-02 06:01:50 51°17.184 2°52.712 1.7 29 21.2 101080 45
2010-07-02 06:01:56 51°17.207 2°52.703 1.9 231 21.2 101080 45
2010-07-02 06:02:00 51°17.222 2°52.698 1.7 23 21.2 101080 47
2010-07-02 06:02:05 51°17.241 2°52.69 1.7 41 21.2 101080 47
2010-07-02 06:02:10 51°17.261 2°52.683 1.8 29 21.2 101080 45
2010-07-02 06:02:15 51°17.28 2°52.676 1.5 36 21.2 101080 45
2010-07-02 06:02:20 51°17.299 2°52.668 1.7 31 21.2 101080 46
2010-07-02 06:02:25 51°17.319 2°52.663 1.6 32 21.2 101080 46
2010-07-02 06:02:30 51°17.338 2°52.657 1.6 29 21.2 101080 46
2010-07-02 06:02:35 51°17.358 2°52.654 1.4 232 21.2 101080 46
2010-07-02 06:02:40 51°17.378 2°52.649 1.6 27 21.2 101080 46
2010-07-02 06:02:45 51°17.397 2°52.647 0.8 34 21.2 101080 46
2010-07-02 06:02:50 51°17.417 2°52.643 1 30 21.2 101080 46
2010-07-02 06:02:56 51°17.441 2°52.642 0.6 34 21.2 101080 46
2010-07-02 06:03:00 51°17.457 2°52.64 0.8 317 21.2 101080 46
2010-07-02 06:03:05 51°17.477 2°52.64 0.9 318 21.2 101080 46
2010-07-02 06:03:10 51°17.497 2°52.639 0.7 319 21.1 101080 46
2010-07-02 06:03:16 51°17.52 2°52.64 0.8 324 21.1 101080 46
2010-07-02 06:03:20 51°17.536 2°52.64 0.8 322 21.2 101080 46
2010-07-02 06:03:24 51°17.552 2°52.64 0.8 330 21.2 101080 46
2010-07-02 06:03:30 51°17.576 2°52.641 0.7 327 21.2 101080 46
2010-07-02 06:03:36 51°17.6 2°52.642 0.7 324 21.2 101080 46
2010-07-02 06:03:40 51°17.616 2°52.643 0.8 324 21.2 101080 46
2010-07-02 06:03:45 51°17.636 2°52.644 0.6 327 21.2 101080 46
2010-07-02 06:03:50 51°17.656 2°52.644 0.8 326 21.2 101080 46
2010-07-02 06:03:56 51°17.679 2°52.645 0.7 327 21.2 101080 46
2010-07-02 06:04:00 51°17.695 2°52.646 0.8 278 21.1 101080 46
2010-07-02 06:04:05 51°17.715 2°52.647 0.8 327 21.1 101080 46
2010-07-02 06:04:10 51°17.735 2°52.647 0.6 324 21.1 101080 46
2010-07-02 06:04:16 51°17.759 2°52.648 0.6 325 21.1 101080 46
2010-07-02 06:04:20 51°17.775 2°52.649 0.6 327 21.1 101080 47
2010-07-02 06:04:24 51°17.791 2°52.649 0.5 325 21.1 101080 47
2010-07-02 06:04:30 51°17.815 2°52.65 0.6 327 21.1 101080 46
2010-07-02 06:04:35 51°17.835 2°52.65 0.7 325 21.1 101080 46
2010-07-02 06:04:40 51°17.855 2°52.65 0.9 330 21.1 101080 46
2010-07-02 06:04:45 51°17.874 2°52.651 0.9 328 21.1 101080 46
2010-07-02 06:04:50 51°17.894 2°52.651 0.8 330 21.1 101080 46
2010-07-02 06:04:55 51°17.914 2°52.652 0.8 329 21.1 101080 46
2010-07-02 06:05:00 51°17.934 2°52.652 0.8 327 21.1 101080 46
2010-07-02 06:05:05 51°17.954 2°52.652 0.6 326 21.1 101080 46
2010-07-02 06:05:10 51°17.974 2°52.653 0.5 326 21.1 101080 46
2010-07-02 06:05:16 51°17.998 2°52.653 0.5 321 21.1 101080 46
2010-07-02 06:05:20 51°18.013 2°52.653 0.5 324 21.1 101080 47
2010-07-02 06:05:25 51°18.033 2°52.653 0.6 325 21.1 101080 47
2010-07-02 06:05:30 51°18.053 2°52.653 0.6 324 21.1 101080 46
2010-07-02 06:05:35 51°18.073 2°52.653 0.6 326 21.1 101080 46
2010-07-02 06:05:40 51°18.093 2°52.654 0.7 323 21.1 101080 46
2010-07-02 06:05:45 51°18.113 2°52.655 0.6 326 21.1 101080 46
2010-07-02 06:05:50 51°18.133 2°52.655 0.8 280 21.1 101080 46
2010-07-02 06:05:55 51°18.153 2°52.659 0.8 324 21.1 101080 46
2010-07-02 06:06:00 51°18.173 2°52.66 0.8 324 21.1 101090 46
2010-07-02 06:06:04 51°18.189 2°52.665 0.4 330 21.1 101090 46
2010-07-02 06:06:10 51°18.212 2°52.668 0.8 282 21.1 101080 46
2010-07-02 06:06:15 51°18.232 2°52.674 0.7 326 21.1 101080 46
2010-07-02 06:06:20 51°18.252 2°52.678 1 330 21.1 101090 47
2010-07-02 06:06:25 51°18.271 2°52.684 0.7 330 21.1 101090 47
2010-07-02 06:06:30 51°18.291 2°52.688 0.7 329 21.1 101090 46
2010-07-02 06:06:35 51°18.31 2°52.695 0.5 332 21.1 101090 46
2010-07-02 06:06:40 51°18.33 2°52.7 0.6 335 21.1 101090 47
2010-07-02 06:06:45 51°18.35 2°52.706 0.6 336 21.1 101090 47
2010-07-02 06:06:50 51°18.369 2°52.712 0.8 334 21.1 101090 47
2010-07-02 06:06:55 51°18.389 2°52.717 0.9 334 21.1 101090 47
2010-07-02 06:07:00 51°18.409 2°52.723 1 338 21.1 101080 47
2010-07-02 06:07:05 51°18.428 2°52.729 0.7 329 21.1 101080 47
2010-07-02 06:07:10 51°18.448 2°52.735 1 329 21.1 101080 46
2010-07-02 06:07:15 51°18.468 2°52.741 1 331 21.1 101080 46
2010-07-02 06:07:20 51°18.487 2°52.746 0.7 282 21.1 101080 46
2010-07-02 06:07:25 51°18.507 2°52.752 0.8 335 21.1 101080 46
2010-07-02 06:07:30 51°18.527 2°52.758 0.9 278 21 101090 47
2010-07-02 06:07:35 51°18.546 2°52.764 0.8 338 21 101090 47
2010-07-02 06:07:40 51°18.566 2°52.769 0.9 331 21 101090 45
2010-07-02 06:07:45 51°18.586 2°52.775 0.9 335 21 101090 45
2010-07-02 06:07:50 51°18.605 2°52.78 0.9 338 21 101080 47
2010-07-02 06:07:56 51°18.629 2°52.786 0.8 340 21 101080 47
2010-07-02 06:08:00 51°18.645 2°52.79 0.8 338 21 101090 46
2010-07-02 06:08:04 51°18.66 2°52.794 1 341 21 101090 46
2010-07-02 06:08:10 51°18.684 2°52.801 1 336 21 101090 46
2010-07-02 06:08:16 51°18.708 2°52.807 1.5 341 21 101090 46
2010-07-02 06:08:20 51°18.724 2°52.811 1.3 333 21 101080 47
2010-07-02 06:08:24 51°18.74 2°52.816 0.8 336 21 101080 47
2010-07-02 06:08:30 51°18.763 2°52.822 0.9 336 21 101080 46
2010-07-02 06:08:35 51°18.783 2°52.828 0.9 337 21 101080 46
2010-07-02 06:08:40 51°18.803 2°52.833 0.8 334 21 101080 47
2010-07-02 06:08:45 51°18.822 2°52.838 0.9 332 21 101080 47
2010-07-02 06:08:50 51°18.842 2°52.843 0.8 336 20.9 101080 46
2010-07-02 06:08:55 51°18.862 2°52.848 0.6 337 20.9 101080 46
2010-07-02 06:09:00 51°18.882 2°52.853 0.8 339 20.9 101090 46
2010-07-02 06:09:05 51°18.901 2°52.858 1.1 338 20.9 101090 46
2010-07-02 06:09:10 51°18.921 2°52.863 0.7 338 20.9 101080 46
2010-07-02 06:09:15 51°18.941 2°52.869 1 337 20.9 101080 46
2010-07-02 06:09:20 51°18.961 2°52.873 1.3 337 20.9 101090 47
2010-07-02 06:09:24 51°18.976 2°52.878 1.6 339 20.9 101090 47
2010-07-02 06:09:30 51°19 2°52.884 1.3 338 20.9 101080 47
2010-07-02 06:09:35 51°19.02 2°52.889 1.3 339 20.9 101080 47
2010-07-02 06:09:40 51°19.039 2°52.894 1.7 339 20.8 101080 47
2010-07-02 06:09:45 51°19.059 2°52.899 1.1 340 20.8 101080 47
2010-07-02 06:09:50 51°19.079 2°52.905 1.1 342 20.8 101080 46
2010-07-02 06:09:56 51°19.102 2°52.911 0.9 339 20.8 101080 46
2010-07-02 06:10:00 51°19.118 2°52.915 0.9 339 20.8 101080 46
2010-07-02 06:10:05 51°19.137 2°52.92 1.3 338 20.8 101080 46
2010-07-02 06:10:10 51°19.157 2°52.925 1.2 339 20.8 101080 46
2010-07-02 06:10:16 51°19.181 2°52.931 0.8 340 20.8 101080 46
2010-07-02 06:10:20 51°19.196 2°52.935 0.9 341 20.8 101080 46
2010-07-02 06:10:24 51°19.212 2°52.939 0.9 341 20.8 101080 46
2010-07-02 06:10:30 51°19.236 2°52.945 0.9 342 20.7 101080 46
2010-07-02 06:10:36 51°19.259 2°52.951 1.1 342 20.7 101080 46
2010-07-02 06:10:40 51°19.275 2°52.955 0.9 344 20.7 101080 47
2010-07-02 06:10:45 51°19.294 2°52.96 0.8 342 20.7 101080 47
2010-07-02 06:10:50 51°19.314 2°52.965 1 343 20.7 101080 46
2010-07-02 06:10:56 51°19.338 2°52.97 0.8 339 20.7 101080 46
2010-07-02 06:11:00 51°19.353 2°52.974 0.9 277 20.7 101080 48
2010-07-02 06:11:05 51°19.373 2°52.979 1.5 341 20.7 101080 48
2010-07-02 06:11:10 51°19.393 2°52.984 1 340 20.7 101080 47
2010-07-02 06:11:15 51°19.412 2°52.989 1.3 340 20.7 101080 47
2010-07-02 06:11:20 51°19.432 2°52.994 0.7 345 20.7 101080 47
2010-07-02 06:11:24 51°19.448 2°52.997 1.4 345 20.7 101080 47
2010-07-02 06:11:30 51°19.471 2°53.003 1.1 341 20.7 101080 47
2010-07-02 06:11:36 51°19.495 2°53.009 1 347 20.7 101080 47
2010-07-02 06:11:40 51°19.51 2°53.013 1.5 342 20.6 101080 47
2010-07-02 06:11:45 51°19.53 2°53.018 0.8 344 20.6 101080 47
2010-07-02 06:11:50 51°19.55 2°53.022 0.7 344 20.7 101080 47
2010-07-02 06:11:55 51°19.569 2°53.027 0.8 343 20.7 101080 47
2010-07-02 06:12:00 51°19.589 2°53.032 0.9 341 20.6 101080 48
2010-07-02 06:12:05 51°19.609 2°53.037 0.8 344 20.6 101080 48
2010-07-02 06:12:10 51°19.628 2°53.042 0.8 342 20.6 101080 47
2010-07-02 06:12:15 51°19.648 2°53.047 0.7 344 20.6 101080 47
2010-07-02 06:12:20 51°19.668 2°53.051 0.9 346 20.6 101080 47
2010-07-02 06:12:25 51°19.687 2°53.056 1 345 20.6 101080 47
2010-07-02 06:12:30 51°19.707 2°53.06 1 282 20.6 101080 49
2010-07-02 06:12:35 51°19.727 2°53.066 0.9 345 20.6 101080 49
2010-07-02 06:12:40 51°19.746 2°53.07 0.8 344 20.6 101080 48
2010-07-02 06:12:45 51°19.766 2°53.076 0.8 347 20.6 101080 48
2010-07-02 06:12:50 51°19.785 2°53.08 0.7 282 20.6 101080 48
2010-07-02 06:12:55 51°19.805 2°53.085 0.8 347 20.6 101080 48
2010-07-02 06:13:00 51°19.825 2°53.091 0.8 346 20.6 101080 47
2010-07-02 06:13:05 51°19.844 2°53.096 1.6 348 20.6 101080 47
2010-07-02 06:13:10 51°19.864 2°53.101 1.1 345 20.5 101080 47
2010-07-02 06:13:15 51°19.884 2°53.106 1.1 347 20.5 101080 47
2010-07-02 06:13:20 51°19.903 2°53.111 0.7 345 20.5 101080 48
2010-07-02 06:13:25 51°19.923 2°53.116 0.7 348 20.5 101080 48
2010-07-02 06:13:30 51°19.942 2°53.121 0.7 347 20.5 101080 47
2010-07-02 06:13:35 51°19.962 2°53.127 0.7 349 20.5 101080 47
2010-07-02 06:13:40 51°19.982 2°53.131 0.6 348 20.5 101080 47
2010-07-02 06:13:45 51°20.001 2°53.136 0.8 345 20.5 101080 47
2010-07-02 06:13:50 51°20.021 2°53.141 0.8 346 20.5 101080 49
2010-07-02 06:13:55 51°20.04 2°53.146 0.7 348 20.5 101080 49
2010-07-02 06:14:00 51°20.06 2°53.15 0.7 346 20.5 101080 48
2010-07-02 06:14:05 51°20.079 2°53.156 1.3 345 20.5 101080 48
2010-07-02 06:14:10 51°20.099 2°53.161 1.8 346 20.5 101080 48
2010-07-02 06:14:15 51°20.119 2°53.166 0.8 346 20.5 101080 48
2010-07-02 06:14:20 51°20.138 2°53.17 0.8 347 20.5 101080 49
2010-07-02 06:14:25 51°20.158 2°53.174 0.9 348 20.5 101080 49
2010-07-02 06:14:30 51°20.177 2°53.179 0.7 347 20.5 101080 47
2010-07-02 06:14:35 51°20.197 2°53.183 1 345 20.5 101080 47
2010-07-02 06:14:40 51°20.216 2°53.188 1.4 349 20.5 101080 48
2010-07-02 06:14:45 51°20.236 2°53.193 1.1 348 20.5 101080 48
2010-07-02 06:14:50 51°20.256 2°53.198 1.1 345 20.5 101080 48
2010-07-02 06:14:56 51°20.279 2°53.203 0.8 340 20.5 101080 48
2010-07-02 06:15:00 51°20.295 2°53.207 0.9 344 20.4 101080 48
2010-07-02 06:15:05 51°20.314 2°53.212 0.9 342 20.4 101080 48
2010-07-02 06:15:10 51°20.334 2°53.216 1 344 20.4 101080 49
2010-07-02 06:15:16 51°20.358 2°53.222 1.2 341 20.4 101080 49
2010-07-02 06:15:20 51°20.374 2°53.226 0.9 345 20.4 101080 49
2010-07-02 06:15:24 51°20.389 2°53.23 1.2 341 20.4 101080 49
2010-07-02 06:15:30 51°20.413 2°53.235 1.1 343 20.4 101080 49
2010-07-02 06:15:35 51°20.433 2°53.241 0.9 345 20.4 101080 49
2010-07-02 06:15:40 51°20.453 2°53.246 0.8 347 20.4 101080 48
2010-07-02 06:15:45 51°20.473 2°53.251 1 341 20.4 101080 48
2010-07-02 06:15:50 51°20.493 2°53.256 0.8 343 20.4 101080 48
2010-07-02 06:15:55 51°20.512 2°53.261 0.7 345 20.4 101080 48
2010-07-02 06:16:00 51°20.532 2°53.266 0.8 346 20.4 101080 48
2010-07-02 06:16:05 51°20.552 2°53.271 0.6 348 20.4 101080 48
2010-07-02 06:16:10 51°20.572 2°53.275 0.8 346 20.4 101080 48
2010-07-02 06:16:16 51°20.595 2°53.281 0.8 346 20.4 101080 48
2010-07-02 06:16:20 51°20.611 2°53.285 0.8 343 20.4 101080 49
2010-07-02 06:16:24 51°20.627 2°53.288 0.7 343 20.4 101080 49
2010-07-02 06:16:30 51°20.65 2°53.294 0.7 346 20.4 101080 49
2010-07-02 06:16:36 51°20.674 2°53.299 0.5 344 20.4 101080 49
2010-07-02 06:16:40 51°20.69 2°53.303 0.6 348 20.4 101090 49
2010-07-02 06:16:45 51°20.709 2°53.307 0.5 348 20.4 101090 49
2010-07-02 06:16:50 51°20.729 2°53.312 0.5 349 20.4 101080 49
2010-07-02 06:16:56 51°20.753 2°53.317 0.8 347 20.4 101080 49
2010-07-02 06:17:00 51°20.769 2°53.321 0.7 345 20.4 101080 50
2010-07-02 06:17:05 51°20.789 2°53.326 0.5 348 20.4 101080 50
2010-07-02 06:17:10 51°20.808 2°53.33 0.8 346 20.4 101080 49
2010-07-02 06:17:16 51°20.832 2°53.336 0.7 344 20.4 101080 49
2010-07-02 06:17:20 51°20.848 2°53.34 0.7 344 20.4 101080 49
2010-07-02 06:17:25 51°20.868 2°53.345 0.7 342 20.4 101080 49
2010-07-02 06:17:30 51°20.888 2°53.349 0.7 345 20.4 101090 48
2010-07-02 06:17:36 51°20.912 2°53.355 0.6 342 20.4 101090 48
2010-07-02 06:17:40 51°20.928 2°53.358 0.7 342 20.4 101090 49
2010-07-02 06:17:45 51°20.947 2°53.363 0.5 339 20.4 101090 49
2010-07-02 06:17:50 51°20.967 2°53.367 0.4 341 20.4 101090 49
2010-07-02 06:17:55 51°20.987 2°53.371 0.6 344 20.4 101090 49
2010-07-02 06:18:00 51°21.007 2°53.376 0.7 343 20.4 101090 49
2010-07-02 06:18:05 51°21.026 2°53.38 0.8 347 20.4 101090 49
2010-07-02 06:18:10 51°21.046 2°53.385 0.6 345 20.4 101090 49
2010-07-02 06:18:15 51°21.066 2°53.39 0.7 341 20.4 101090 49
2010-07-02 06:18:20 51°21.086 2°53.394 0.6 347 20.4 101090 48
2010-07-02 06:18:25 51°21.105 2°53.399 0.6 344 20.4 101090 48
2010-07-02 06:18:30 51°21.125 2°53.404 0.7 343 20.4 101090 49
2010-07-02 06:18:35 51°21.145 2°53.409 0.9 344 20.4 101090 49
2010-07-02 06:18:40 51°21.165 2°53.414 0.7 345 20.4 101090 49
2010-07-02 06:18:45 51°21.185 2°53.418 0.5 347 20.4 101090 49
2010-07-02 06:18:50 51°21.205 2°53.423 0.6 277 20.4 101090 48
2010-07-02 06:18:55 51°21.224 2°53.428 0.7 341 20.4 101090 48
2010-07-02 06:19:00 51°21.244 2°53.433 1 343 20.4 101090 50
2010-07-02 06:19:05 51°21.264 2°53.437 0.6 344 20.4 101090 50
2010-07-02 06:19:10 51°21.284 2°53.443 0.6 281 20.4 101090 49
2010-07-02 06:19:15 51°21.304 2°53.447 0.7 342 20.4 101090 49
2010-07-02 06:19:20 51°21.323 2°53.452 0.7 345 20.4 101090 49
2010-07-02 06:19:25 51°21.343 2°53.457 0.5 340 20.4 101090 49
2010-07-02 06:19:30 51°21.363 2°53.462 0.6 344 20.4 101090 49
2010-07-02 06:19:35 51°21.383 2°53.467 0.6 348 20.4 101090 49
2010-07-02 06:19:40 51°21.402 2°53.472 0.3 344 20.4 101090 49
2010-07-02 06:19:45 51°21.422 2°53.476 0.7 342 20.4 101090 49
2010-07-02 06:19:50 51°21.442 2°53.481 0.5 343 20.4 101090 49
2010-07-02 06:19:56 51°21.466 2°53.487 0.5 338 20.4 101090 49
2010-07-02 06:20:00 51°21.481 2°53.491 0.4 341 20.4 101090 48
2010-07-02 06:20:05 51°21.501 2°53.496 0.5 343 20.4 101090 48
2010-07-02 06:20:10 51°21.521 2°53.501 0.5 343 20.4 101090 49
2010-07-02 06:20:15 51°21.54 2°53.506 0.7 340 20.4 101090 49
2010-07-02 06:20:20 51°21.56 2°53.511 0.6 341 20.4 101090 48
2010-07-02 06:20:25 51°21.58 2°53.516 0.5 345 20.4 101090 48
2010-07-02 06:20:30 51°21.6 2°53.521 0.5 346 20.4 101090 49
2010-07-02 06:20:35 51°21.619 2°53.526 0.5 344 20.4 101090 49
2010-07-02 06:20:40 51°21.639 2°53.531 0.6 344 20.4 101090 49
2010-07-02 06:20:45 51°21.659 2°53.535 0.6 349 20.4 101090 49
2010-07-02 06:20:50 51°21.679 2°53.54 0.5 348 20.4 101090 48
2010-07-02 06:20:56 51°21.702 2°53.546 0.6 345 20.4 101090 48
2010-07-02 06:21:00 51°21.718 2°53.55 0.5 350 20.4 101090 48
2010-07-02 06:21:05 51°21.738 2°53.555 0.9 349 20.4 101090 48
2010-07-02 06:21:10 51°21.758 2°53.56 0.9 352 20.4 101090 49
2010-07-02 06:21:16 51°21.781 2°53.566 0.6 352 20.4 101090 49
2010-07-02 06:21:20 51°21.797 2°53.57 0.5 349 20.4 101090 49
2010-07-02 06:21:24 51°21.813 2°53.574 1 339 20.4 101090 49
2010-07-02 06:21:30 51°21.837 2°53.58 1.3 341 20.4 101090 48
2010-07-02 06:21:36 51°21.86 2°53.587 0.8 342 20.4 101090 48
2010-07-02 06:21:40 51°21.876 2°53.591 0.7 340 20.4 101090 49
2010-07-02 06:21:45 51°21.896 2°53.596 0.7 346 20.4 101090 49
2010-07-02 06:21:50 51°21.916 2°53.601 0.7 350 20.4 101090 48
2010-07-02 06:21:56 51°21.939 2°53.607 0.7 346 20.4 101090 48
2010-07-02 06:22:00 51°21.955 2°53.611 0.8 276 20.4 101090 49
2010-07-02 06:22:05 51°21.975 2°53.616 0.7 348 20.4 101090 49
2010-07-02 06:22:10 51°21.995 2°53.621 0.6 349 20.4 101090 48
2010-07-02 06:22:16 51°22.019 2°53.627 0.6 348 20.4 101090 48
2010-07-02 06:22:20 51°22.035 2°53.631 0.9 348 20.4 101090 49
2010-07-02 06:22:24 51°22.05 2°53.635 0.8 345 20.4 101090 49
2010-07-02 06:22:30 51°22.074 2°53.641 0.8 350 20.4 101090 50
2010-07-02 06:22:35 51°22.094 2°53.645 0.9 348 20.4 101090 50
2010-07-02 06:22:40 51°22.114 2°53.651 0.8 350 20.4 101090 49
2010-07-02 06:22:45 51°22.134 2°53.655 0.7 348 20.4 101090 49
2010-07-02 06:22:50 51°22.153 2°53.66 0.8 349 20.4 101080 49
2010-07-02 06:22:55 51°22.173 2°53.665 0.7 348 20.4 101080 49
2010-07-02 06:23:00 51°22.193 2°53.67 0.8 350 20.4 101080 49
2010-07-02 06:23:05 51°22.213 2°53.675 0.6 348 20.4 101080 49
2010-07-02 06:23:10 51°22.232 2°53.68 0.8 344 20.4 101080 49
2010-07-02 06:23:15 51°22.252 2°53.685 0.6 347 20.4 101080 49
2010-07-02 06:23:20 51°22.272 2°53.689 0.5 347 20.4 101080 48
2010-07-02 06:23:25 51°22.292 2°53.694 0.5 344 20.4 101080 48
2010-07-02 06:23:30 51°22.312 2°53.698 0.7 277 20.4 101080 48
2010-07-02 06:23:35 51°22.332 2°53.702 0.6 347 20.4 101080 48
2010-07-02 06:23:40 51°22.352 2°53.707 1.1 347 20.4 101080 48
2010-07-02 06:23:45 51°22.371 2°53.712 1 343 20.4 101080 48
2010-07-02 06:23:50 51°22.391 2°53.717 0.8 347 20.4 101080 49
2010-07-02 06:23:56 51°22.415 2°53.722 0.6 351 20.4 101080 49
2010-07-02 06:24:00 51°22.431 2°53.726 0.8 348 20.4 101080 48
2010-07-02 06:24:05 51°22.451 2°53.73 0.8 356 20.4 101080 48
2010-07-02 06:24:10 51°22.471 2°53.736 0.8 352 20.3 101080 48
2010-07-02 06:24:16 51°22.495 2°53.741 0.7 353 20.3 101080 48
2010-07-02 06:24:20 51°22.511 2°53.745 0.6 350 20.4 101080 48
2010-07-02 06:24:24 51°22.527 2°53.749 0.6 350 20.4 101080 48
2010-07-02 06:24:30 51°22.551 2°53.755 0.6 349 20.4 101080 48
2010-07-02 06:24:36 51°22.575 2°53.761 0.7 346 20.4 101080 48
2010-07-02 06:24:40 51°22.591 2°53.765 0.7 348 20.3 101080 48
2010-07-02 06:24:45 51°22.611 2°53.77 0.6 350 20.3 101080 48
2010-07-02 06:24:50 51°22.631 2°53.774 0.6 352 20.3 101080 49
2010-07-02 06:24:55 51°22.651 2°53.78 0.6 357 20.3 101080 49
2010-07-02 06:25:00 51°22.671 2°53.784 0.7 276 20.3 101090 49
2010-07-02 06:25:05 51°22.691 2°53.79 0.6 348 20.3 101090 49
2010-07-02 06:25:10 51°22.711 2°53.795 0.6 347 20.3 101080 48
2010-07-02 06:25:16 51°22.735 2°53.801 0.5 352 20.3 101080 48
2010-07-02 06:25:20 51°22.751 2°53.805 0.5 347 20.3 101080 49
2010-07-02 06:25:24 51°22.767 2°53.81 0.7 351 20.3 101080 49
2010-07-02 06:25:30 51°22.791 2°53.815 0.5 344 20.3 101080 48
2010-07-02 06:25:35 51°22.812 2°53.821 0.7 354 20.3 101080 48
2010-07-02 06:25:40 51°22.832 2°53.826 0.7 355 20.3 101080 49
2010-07-02 06:25:45 51°22.852 2°53.832 0.6 349 20.3 101080 49
2010-07-02 06:25:50 51°22.872 2°53.837 0.8 353 20.3 101080 49
2010-07-02 06:25:55 51°22.892 2°53.842 0.5 351 20.3 101080 49
2010-07-02 06:26:00 51°22.912 2°53.848 0.7 355 20.3 101080 49
2010-07-02 06:26:05 51°22.932 2°53.854 0.5 356 20.3 101080 49
2010-07-02 06:26:10 51°22.953 2°53.859 0.7 359 20.3 101080 49
2010-07-02 06:26:15 51°22.973 2°53.865 0.6 358 20.3 101080 49
2010-07-02 06:26:20 51°22.993 2°53.87 0.6 357 20.3 101080 47
2010-07-02 06:26:25 51°23.013 2°53.876 0.7 354 20.3 101080 47
2010-07-02 06:26:30 51°23.033 2°53.881 0.6 2 20.3 101080 49
2010-07-02 06:26:35 51°23.054 2°53.887 0.7 354 20.3 101080 49
2010-07-02 06:26:40 51°23.074 2°53.893 0.8 351 20.3 101080 48
2010-07-02 06:26:45 51°23.094 2°53.898 0.8 350 20.3 101080 48
2010-07-02 06:26:50 51°23.114 2°53.903 0.7 352 20.3 101080 47
2010-07-02 06:26:55 51°23.135 2°53.909 0.5 351 20.3 101080 47
2010-07-02 06:27:00 51°23.155 2°53.914 0.7 356 20.3 101080 48
2010-07-02 06:27:05 51°23.175 2°53.919 0.8 359 20.3 101080 48
2010-07-02 06:27:10 51°23.195 2°53.924 0.8 353 20.3 101080 48
2010-07-02 06:27:15 51°23.215 2°53.93 0.8 353 20.3 101080 48
2010-07-02 06:27:20 51°23.236 2°53.935 0.5 353 20.3 101080 50
2010-07-02 06:27:25 51°23.256 2°53.94 0.7 346 20.3 101080 50
2010-07-02 06:27:30 51°23.276 2°53.944 0.8 346 20.3 101080 49
2010-07-02 06:27:35 51°23.296 2°53.949 0.4 348 20.3 101080 49
2010-07-02 06:27:40 51°23.316 2°53.953 0.5 349 20.3 101080 49
2010-07-02 06:27:45 51°23.336 2°53.958 0.8 352 20.3 101080 49
2010-07-02 06:27:50 51°23.356 2°53.963 0.7 352 20.3 101080 49
2010-07-02 06:27:55 51°23.376 2°53.968 0.6 350 20.3 101080 49
2010-07-02 06:28:00 51°23.396 2°53.973 0.6 353 20.3 101080 49
2010-07-02 06:28:05 51°23.416 2°53.978 0.7 341 20.3 101080 49
2010-07-02 06:28:10 51°23.436 2°53.983 0.9 277 20.3 101080 48
2010-07-02 06:28:15 51°23.456 2°53.988 0.9 347 20.3 101080 48
2010-07-02 06:28:20 51°23.476 2°53.994 0.8 348 20.3 101080 48
2010-07-02 06:28:25 51°23.496 2°53.998 0.6 348 20.3 101080 48
2010-07-02 06:28:30 51°23.516 2°54.003 0.7 345 20.3 101080 48
2010-07-02 06:28:35 51°23.536 2°54.007 0.7 344 20.3 101080 48
2010-07-02 06:28:40 51°23.556 2°54.012 0.7 341 20.3 101080 49
2010-07-02 06:28:45 51°23.576 2°54.017 0.5 347 20.3 101080 49
2010-07-02 06:28:50 51°23.597 2°54.021 0.5 337 20.3 101080 49
2010-07-02 06:28:55 51°23.617 2°54.025 0.7 340 20.3 101080 49
2010-07-02 06:29:00 51°23.636 2°54.03 0.7 340 20.3 101080 47
2010-07-02 06:29:04 51°23.652 2°54.033 0.4 350 20.3 101080 47
2010-07-02 06:29:10 51°23.676 2°54.039 0.5 337 20.3 101080 49
2010-07-02 06:29:15 51°23.696 2°54.044 0.8 336 20.3 101080 49
2010-07-02 06:29:20 51°23.715 2°54.049 0.6 346 20.3 101090 49
2010-07-02 06:29:24 51°23.731 2°54.052 0.7 347 20.3 101090 49
2010-07-02 06:29:30 51°23.755 2°54.058 0.7 346 20.2 101080 48
2010-07-02 06:29:35 51°23.775 2°54.063 0.8 340 20.2 101080 48
2010-07-02 06:29:40 51°23.795 2°54.068 0.7 344 20.2 101080 49
2010-07-02 06:29:45 51°23.815 2°54.072 0.5 346 20.2 101080 49
2010-07-02 06:29:50 51°23.835 2°54.076 0.6 340 20.3 101080 48
2010-07-02 06:29:56 51°23.859 2°54.081 0.5 340 20.3 101080 48
2010-07-02 06:30:00 51°23.875 2°54.085 0.5 340 20.2 101090 49
2010-07-02 06:30:05 51°23.895 2°54.089 0.5 337 20.2 101090 49
2010-07-02 06:30:10 51°23.915 2°54.093 0.6 347 20.2 101080 49
2010-07-02 06:30:16 51°23.939 2°54.099 0.7 342 20.2 101080 49
2010-07-02 06:30:20 51°23.955 2°54.103 0.7 348 20.2 101080 48
2010-07-02 06:30:24 51°23.97 2°54.107 0.9 343 20.2 101080 48
2010-07-02 06:30:30 51°23.994 2°54.112 0.6 342 20.2 101090 50
2010-07-02 06:30:36 51°24.018 2°54.117 0.7 350 20.2 101090 50
2010-07-02 06:30:40 51°24.034 2°54.121 0.7 345 20.2 101090 49
2010-07-02 06:30:45 51°24.054 2°54.125 0.7 346 20.2 101090 49
2010-07-02 06:30:50 51°24.074 2°54.13 0.7 344 20.2 101080 49
2010-07-02 06:30:56 51°24.098 2°54.135 0.7 345 20.2 101080 49
2010-07-02 06:31:00 51°24.114 2°54.138 0.5 348 20.2 101080 49
2010-07-02 06:31:04 51°24.129 2°54.141 0.6 348 20.2 101080 49
2010-07-02 06:31:10 51°24.153 2°54.147 0.6 349 20.2 101080 49
2010-07-02 06:31:15 51°24.173 2°54.151 0.5 347 20.2 101080 49
2010-07-02 06:31:20 51°24.193 2°54.156 0.5 277 20.2 101080 48
2010-07-02 06:31:25 51°24.213 2°54.16 0.7 343 20.2 101080 48
2010-07-02 06:31:30 51°24.233 2°54.165 1 344 20.2 101080 49
2010-07-02 06:31:35 51°24.253 2°54.169 0.5 341 20.2 101080 49
2010-07-02 06:31:40 51°24.272 2°54.174 0.6 349 20.2 101080 48
2010-07-02 06:31:45 51°24.292 2°54.178 0.6 339 20.2 101080 48
2010-07-02 06:31:50 51°24.312 2°54.182 0.8 344 20.2 101080 50
2010-07-02 06:31:56 51°24.336 2°54.188 0.4 337 20.2 101080 50
2010-07-02 06:32:00 51°24.352 2°54.192 0.5 340 20.2 101080 49
2010-07-02 06:32:04 51°24.368 2°54.195 0.6 343 20.2 101080 49
2010-07-02 06:32:10 51°24.392 2°54.2 0.4 337 20.2 101080 49
2010-07-02 06:32:15 51°24.412 2°54.205 0.7 342 20.2 101080 49
2010-07-02 06:32:20 51°24.432 2°54.209 0.8 339 20.2 101080 49
2010-07-02 06:32:25 51°24.452 2°54.214 0.8 339 20.2 101080 49
2010-07-02 06:32:30 51°24.471 2°54.218 0.7 340 20.2 101090 49
2010-07-02 06:32:36 51°24.495 2°54.224 0.6 344 20.2 101090 49
2010-07-02 06:32:40 51°24.511 2°54.227 0.6 341 20.2 101090 48
2010-07-02 06:32:45 51°24.531 2°54.231 0.5 345 20.2 101090 48
2010-07-02 06:32:50 51°24.551 2°54.236 0.4 338 20.2 101090 49
2010-07-02 06:32:56 51°24.575 2°54.241 0.6 344 20.2 101090 49
2010-07-02 06:33:00 51°24.591 2°54.244 0.3 347 20.2 101080 49
2010-07-02 06:33:04 51°24.607 2°54.248 0.5 343 20.2 101080 49
2010-07-02 06:33:10 51°24.631 2°54.253 0.4 340 20.2 101090 49
2010-07-02 06:33:15 51°24.651 2°54.257 0.5 346 20.2 101090 49
2010-07-02 06:33:20 51°24.671 2°54.261 0.3 281 20.2 101090 49
2010-07-02 06:33:25 51°24.691 2°54.266 0.3 344 20.2 101090 49
2010-07-02 06:33:30 51°24.711 2°54.27 0.4 333 20.2 101090 49
2010-07-02 06:33:36 51°24.735 2°54.275 0.5 343 20.2 101090 49
2010-07-02 06:33:40 51°24.751 2°54.278 0.5 338 20.2 101090 50
2010-07-02 06:33:45 51°24.771 2°54.282 0.3 343 20.2 101090 50
2010-07-02 06:33:50 51°24.791 2°54.287 0.5 339 20.2 101090 49
2010-07-02 06:33:55 51°24.811 2°54.291 0.7 338 20.2 101090 49
2010-07-02 06:34:00 51°24.831 2°54.296 0.5 340 20.2 101080 50
2010-07-02 06:34:05 51°24.851 2°54.3 0.6 335 20.2 101080 50
2010-07-02 06:34:10 51°24.871 2°54.305 0.6 340 20.2 101090 50
2010-07-02 06:34:15 51°24.891 2°54.309 0.3 337 20.2 101090 50
2010-07-02 06:34:20 51°24.911 2°54.313 0.3 337 20.2 101090 49
2010-07-02 06:34:24 51°24.927 2°54.315 0.6 334 20.2 101090 49
2010-07-02 06:34:30 51°24.951 2°54.321 0.6 335 20.2 101090 50
2010-07-02 06:34:35 51°24.971 2°54.325 0.7 337 20.2 101090 50
2010-07-02 06:34:40 51°24.991 2°54.33 0.7 333 20.2 101090 50
2010-07-02 06:34:45 51°25.011 2°54.334 0.8 330 20.2 101090 50
2010-07-02 06:34:50 51°25.032 2°54.339 0.5 281 20.2 101090 49
2010-07-02 06:34:55 51°25.052 2°54.344 0.7 327 20.2 101090 49
2010-07-02 06:35:00 51°25.072 2°54.348 0.8 326 20.3 101090 51
2010-07-02 06:35:05 51°25.092 2°54.353 0.8 325 20.3 101090 51
2010-07-02 06:35:10 51°25.112 2°54.358 0.7 324 20.3 101090 51
2010-07-02 06:35:16 51°25.136 2°54.363 1.7 327 20.3 101090 51
2010-07-02 06:35:20 51°25.152 2°54.367 1.5 322 20.3 101090 50
2010-07-02 06:35:24 51°25.168 2°54.37 0.7 320 20.3 101090 50
2010-07-02 06:35:30 51°25.192 2°54.375 0.5 316 20.3 101090 52
2010-07-02 06:35:35 51°25.212 2°54.38 0.8 319 20.3 101090 52
2010-07-02 06:35:40 51°25.232 2°54.384 0.8 319 20.3 101090 50
2010-07-02 06:35:45 51°25.252 2°54.389 0.8 315 20.3 101090 50
2010-07-02 06:35:50 51°25.272 2°54.393 0.7 315 20.3 101100 50
2010-07-02 06:35:55 51°25.293 2°54.397 0.8 317 20.3 101100 50
2010-07-02 06:36:00 51°25.313 2°54.402 0.8 283 20.3 101100 50
2010-07-02 06:36:05 51°25.333 2°54.406 0.7 35 20.3 101100 50
2010-07-02 06:36:10 51°25.353 2°54.41 0.7 316 20.3 101100 50
2010-07-02 06:36:15 51°25.373 2°54.414 0.7 315 20.3 101100 50
2010-07-02 06:36:20 51°25.393 2°54.419 0.6 30 20.3 101100 50
2010-07-02 06:36:25 51°25.413 2°54.423 0.6 41 20.3 101100 50
2010-07-02 06:36:30 51°25.433 2°54.428 0.5 23 20.3 101100 50
2010-07-02 06:36:35 51°25.453 2°54.432 0.3 315 20.3 101100 50
2010-07-02 06:36:40 51°25.473 2°54.436 0.3 25 20.3 101100 50
2010-07-02 06:36:45 51°25.493 2°54.44 0.3 318 20.3 101100 50
2010-07-02 06:36:50 51°25.513 2°54.445 0.4 323 20.3 101100 50
2010-07-02 06:36:56 51°25.537 2°54.45 0.8 325 20.3 101100 50
2010-07-02 06:37:00 51°25.553 2°54.454 0.8 327 20.3 101100 50
2010-07-02 06:37:04 51°25.569 2°54.457 0.7 322 20.3 101100 50
2010-07-02 06:37:10 51°25.593 2°54.463 0.6 323 20.3 101100 50
2010-07-02 06:37:15 51°25.613 2°54.468 0.9 316 20.3 101100 50
2010-07-02 06:37:20 51°25.633 2°54.473 0.7 319 20.4 101100 50
2010-07-02 06:37:25 51°25.653 2°54.477 0.8 319 20.4 101100 50
2010-07-02 06:37:30 51°25.674 2°54.482 1 322 20.4 101100 49
2010-07-02 06:37:36 51°25.698 2°54.488 1 321 20.4 101100 49
2010-07-02 06:37:40 51°25.714 2°54.492 1.1 320 20.4 101100 50
2010-07-02 06:37:45 51°25.734 2°54.496 0.9 320 20.4 101100 50
2010-07-02 06:37:50 51°25.754 2°54.501 0.4 29 20.4 101100 51
2010-07-02 06:37:56 51°25.778 2°54.507 0.7 319 20.4 101100 51
2010-07-02 06:38:00 51°25.794 2°54.511 0.6 316 20.4 101100 49
2010-07-02 06:38:05 51°25.815 2°54.516 0.8 322 20.4 101100 49
2010-07-02 06:38:10 51°25.835 2°54.521 0.9 320 20.4 101100 50
2010-07-02 06:38:15 51°25.855 2°54.526 0.7 36 20.4 101100 50
2010-07-02 06:38:20 51°25.875 2°54.531 0.6 315 20.4 101100 49
2010-07-02 06:38:25 51°25.895 2°54.536 0.6 317 20.4 101100 49
2010-07-02 06:38:30 51°25.916 2°54.541 0.6 320 20.3 101100 49
2010-07-02 06:38:36 51°25.94 2°54.547 0.7 321 20.3 101100 49
2010-07-02 06:38:40 51°25.956 2°54.55 1 31 20.4 101100 50
2010-07-02 06:38:45 51°25.976 2°54.555 0.6 323 20.4 101100 50
2010-07-02 06:38:50 51°25.996 2°54.56 1.3 324 20.4 101100 49
2010-07-02 06:38:55 51°26.016 2°54.566 0.8 325 20.4 101100 49
2010-07-02 06:39:00 51°26.037 2°54.571 0.8 319 20.4 101100 49
2010-07-02 06:39:05 51°26.057 2°54.576 0.6 319 20.4 101100 49
2010-07-02 06:39:10 51°26.077 2°54.581 0.7 317 20.4 101100 49
2010-07-02 06:39:15 51°26.097 2°54.586 1.5 318 20.4 101100 49
2010-07-02 06:39:20 51°26.117 2°54.59 1.6 318 20.3 101090 49
2010-07-02 06:39:25 51°26.137 2°54.595 1.5 318 20.3 101090 49
2010-07-02 06:39:30 51°26.157 2°54.6 1.4 282 20.4 101090 50
2010-07-02 06:39:35 51°26.178 2°54.606 1.5 318 20.4 101090 50
2010-07-02 06:39:40 51°26.198 2°54.61 1.5 316 20.4 101090 50
2010-07-02 06:39:45 51°26.218 2°54.615 0.6 324 20.4 101090 50
2010-07-02 06:39:50 51°26.238 2°54.62 0.7 321 20.4 101100 49
2010-07-02 06:39:56 51°26.262 2°54.626 0.4 324 20.4 101100 49
2010-07-02 06:40:00 51°26.278 2°54.63 0.5 282 20.4 101090 49
2010-07-02 06:40:05 51°26.299 2°54.634 0.5 326 20.4 101090 49
2010-07-02 06:40:10 51°26.319 2°54.639 0.4 328 20.4 101100 48
2010-07-02 06:40:15 51°26.339 2°54.644 0.4 330 20.4 101100 48
2010-07-02 06:40:20 51°26.36 2°54.649 0.3 325 20.4 101090 50
2010-07-02 06:40:25 51°26.38 2°54.654 0.4 327 20.4 101090 50
2010-07-02 06:40:30 51°26.4 2°54.66 0.2 327 20.3 101090 49
2010-07-02 06:40:35 51°26.421 2°54.665 0.4 328 20.3 101090 49
2010-07-02 06:40:40 51°26.441 2°54.67 0.4 331 20.3 101090 49
2010-07-02 06:40:45 51°26.461 2°54.676 0.5 328 20.3 101090 49
2010-07-02 06:40:50 51°26.481 2°54.682 0.5 326 20.4 101090 49
2010-07-02 06:40:56 51°26.506 2°54.689 0.7 330 20.4 101090 49
2010-07-02 06:41:00 51°26.522 2°54.693 0.8 324 20.4 101090 49
2010-07-02 06:41:04 51°26.538 2°54.697 0.8 320 20.4 101090 49
2010-07-02 06:41:10 51°26.563 2°54.702 0.9 322 20.4 101090 49
2010-07-02 06:41:15 51°26.583 2°54.707 1.4 323 20.4 101090 49
2010-07-02 06:41:20 51°26.604 2°54.711 1.3 319 20.4 101090 49
2010-07-02 06:41:25 51°26.624 2°54.713 1.4 317 20.4 101090 49
2010-07-02 06:41:30 51°26.644 2°54.717 1.3 319 20.4 101090 50
2010-07-02 06:41:36 51°26.669 2°54.721 0.8 38 20.4 101090 50
2010-07-02 06:41:40 51°26.685 2°54.724 0.4 317 20.4 101090 49
2010-07-02 06:41:45 51°26.706 2°54.727 1.1 36 20.4 101090 49
2010-07-02 06:41:50 51°26.726 2°54.729 0.7 318 20.4 101090 49
2010-07-02 06:41:56 51°26.751 2°54.733 1.3 35 20.4 101090 49
2010-07-02 06:42:00 51°26.767 2°54.735 1.2 24 20.4 101090 49
2010-07-02 06:42:05 51°26.787 2°54.738 1.4 320 20.4 101090 49
2010-07-02 06:42:10 51°26.808 2°54.741 1.5 318 20.4 101090 50
2010-07-02 06:42:16 51°26.832 2°54.744 1.7 317 20.4 101090 50
2010-07-02 06:42:20 51°26.849 2°54.746 1.6 29 20.4 101090 49
2010-07-02 06:42:25 51°26.869 2°54.749 1.9 321 20.4 101090 49
2010-07-02 06:42:30 51°26.89 2°54.752 1.6 29 20.4 101090 49
2010-07-02 06:42:36 51°26.914 2°54.756 0.8 317 20.4 101090 49
2010-07-02 06:42:40 51°26.931 2°54.758 0.8 317 20.4 101090 49
2010-07-02 06:42:45 51°26.951 2°54.761 0.6 36 20.4 101090 49
2010-07-02 06:42:50 51°26.972 2°54.763 0.6 31 20.4 101090 49
2010-07-02 06:42:55 51°26.992 2°54.766 0.8 36 20.4 101090 49
2010-07-02 06:43:00 51°27.012 2°54.768 0.6 318 20.4 101090 49
2010-07-02 06:43:05 51°27.033 2°54.77 0.4 317 20.4 101090 49
2010-07-02 06:43:10 51°27.053 2°54.772 0.5 318 20.4 101090 49
2010-07-02 06:43:16 51°27.077 2°54.772 0.8 36 20.4 101090 49
2010-07-02 06:43:20 51°27.093 2°54.774 0.7 320 20.4 101090 49
2010-07-02 06:43:24 51°27.109 2°54.774 0.7 34 20.4 101090 49
2010-07-02 06:43:30 51°27.133 2°54.776 0.6 23 20.4 101090 49
2010-07-02 06:43:35 51°27.153 2°54.776 0.9 40 20.4 101090 49
2010-07-02 06:43:40 51°27.173 2°54.778 0.8 22 20.4 101090 48
2010-07-02 06:43:45 51°27.193 2°54.779 0.5 316 20.4 101090 48
2010-07-02 06:43:50 51°27.213 2°54.781 0.4 30 20.4 101090 49
2010-07-02 06:43:56 51°27.237 2°54.783 0.8 33 20.4 101090 49
2010-07-02 06:44:00 51°27.254 2°54.784 0.7 29 20.4 101090 49
2010-07-02 06:44:04 51°27.27 2°54.785 0.7 317 20.4 101090 49
2010-07-02 06:44:10 51°27.294 2°54.788 0.4 286 20.4 101090 49
2010-07-02 06:44:15 51°27.313 2°54.788 0.5 316 20.4 101090 49
2010-07-02 06:44:20 51°27.333 2°54.791 0.5 282 20.4 101090 49
2010-07-02 06:44:25 51°27.353 2°54.794 0.2 36 20.4 101090 49
2010-07-02 06:44:30 51°27.373 2°54.794 0.7 24 20.4 101090 49
2010-07-02 06:44:36 51°27.398 2°54.796 0.9 34 20.4 101090 49
2010-07-02 06:44:40 51°27.414 2°54.797 0.8 30 20.4 101090 50
2010-07-02 06:44:45 51°27.433 2°54.798 0.7 38 20.4 101090 50
2010-07-02 06:44:50 51°27.453 2°54.799 0.7 27 20.4 101090 49
2010-07-02 06:44:55 51°27.473 2°54.801 0.4 232 20.4 101090 49
2010-07-02 06:45:00 51°27.493 2°54.802 0.6 282 20.4 101090 49
2010-07-02 06:45:05 51°27.513 2°54.804 1 33 20.4 101090 49
2010-07-02 06:45:10 51°27.533 2°54.806 1.3 30 20.4 101090 49
2010-07-02 06:45:15 51°27.553 2°54.808 1 39 20.4 101090 49
2010-07-02 06:45:20 51°27.573 2°54.81 1.3 22 20.4 101090 49
2010-07-02 06:45:25 51°27.593 2°54.811 1.6 41 20.4 101090 49
2010-07-02 06:45:30 51°27.613 2°54.813 1.5 27 20.4 101090 47
2010-07-02 06:45:36 51°27.637 2°54.815 1.7 42 20.4 101090 47
2010-07-02 06:45:40 51°27.653 2°54.816 1.8 318 20.4 101090 48
2010-07-02 06:45:45 51°27.672 2°54.818 1.8 318 20.4 101090 48
2010-07-02 06:45:50 51°27.692 2°54.82 1.5 316 20.4 101090 49
2010-07-02 06:45:55 51°27.713 2°54.822 1 35 20.4 101090 49
2010-07-02 06:46:00 51°27.733 2°54.823 0.7 318 20.4 101090 49
2010-07-02 06:46:05 51°27.753 2°54.825 0.7 320 20.4 101090 49
2010-07-02 06:46:10 51°27.773 2°54.826 0.7 319 20.3 101090 48
2010-07-02 06:46:15 51°27.793 2°54.828 1.2 319 20.3 101090 48
2010-07-02 06:46:20 51°27.813 2°54.83 1 323 20.3 101090 49
2010-07-02 06:46:25 51°27.833 2°54.832 0.8 319 20.3 101090 49
2010-07-02 06:46:30 51°27.853 2°54.834 0.7 317 20.3 101090 47
2010-07-02 06:46:35 51°27.873 2°54.836 0.2 42 20.3 101090 47
2010-07-02 06:46:40 51°27.893 2°54.836 0.2 317 20.3 101090 49
2010-07-02 06:46:45 51°27.912 2°54.838 0.4 316 20.3 101090 49
2010-07-02 06:46:50 51°27.933 2°54.839 0.5 23 20.3 101090 49
2010-07-02 06:46:55 51°27.953 2°54.84 0.3 36 20.3 101090 49
2010-07-02 06:47:00 51°27.973 2°54.841 0.7 318 20.3 101090 48
2010-07-02 06:47:04 51°27.989 2°54.842 0.8 32 20.3 101090 48
2010-07-02 06:47:10 51°28.013 2°54.845 0.8 316 20.3 101090 47
2010-07-02 06:47:15 51°28.033 2°54.847 0.9 316 20.3 101090 47
2010-07-02 06:47:20 51°28.053 2°54.848 1.8 280 20.3 101090 49
2010-07-02 06:47:25 51°28.073 2°54.85 2.1 34 20.3 101090 49
2010-07-02 06:47:30 51°28.093 2°54.852 2 21 20.3 101090 48
2010-07-02 06:47:36 51°28.118 2°54.855 1.9 35 20.3 101090 48
2010-07-02 06:47:40 51°28.134 2°54.856 2.2 24 20.3 101090 49
2010-07-02 06:47:45 51°28.154 2°54.858 1.9 34 20.3 101090 49
2010-07-02 06:47:50 51°28.174 2°54.859 2.1 22 20.3 101090 49
2010-07-02 06:47:55 51°28.194 2°54.861 1.7 40 20.3 101090 49
2010-07-02 06:48:00 51°28.214 2°54.863 1.8 26 20.3 101090 47
2010-07-02 06:48:05 51°28.234 2°54.864 1.4 35 20.3 101090 47
2010-07-02 06:48:10 51°28.254 2°54.865 1.4 276 20.3 101090 48
2010-07-02 06:48:15 51°28.274 2°54.866 1.1 236 20.3 101090 48
2010-07-02 06:48:20 51°28.294 2°54.867 0.7 316 20.2 101090 49
2010-07-02 06:48:25 51°28.314 2°54.868 0.6 234 20.2 101090 49
2010-07-02 06:48:30 51°28.334 2°54.869 0.6 21 20.2 101100 49
2010-07-02 06:48:36 51°28.358 2°54.871 0.9 238 20.2 101100 49
2010-07-02 06:48:40 51°28.374 2°54.871 0.6 29 20.2 101100 48
2010-07-02 06:48:45 51°28.394 2°54.873 0.7 316 20.2 101100 48
2010-07-02 06:48:50 51°28.415 2°54.874 0.6 317 20.2 101100 48
2010-07-02 06:48:56 51°28.439 2°54.876 0.7 320 20.2 101100 48
2010-07-02 06:49:00 51°28.455 2°54.878 0.7 319 20.2 101100 48
2010-07-02 06:49:05 51°28.475 2°54.879 0.9 323 20.2 101100 48
2010-07-02 06:49:10 51°28.495 2°54.882 0.9 321 20.2 101100 48
2010-07-02 06:49:15 51°28.515 2°54.883 1.3 319 20.2 101100 48
2010-07-02 06:49:20 51°28.535 2°54.885 1.7 281 20.2 101100 49
2010-07-02 06:49:25 51°28.555 2°54.886 1.8 319 20.2 101100 49
2010-07-02 06:49:30 51°28.575 2°54.887 2.1 286 20.2 101100 48
2010-07-02 06:49:35 51°28.595 2°54.888 1.8 34 20.2 101100 48
2010-07-02 06:49:40 51°28.615 2°54.89 1.8 24 20.2 101100 48
2010-07-02 06:49:45 51°28.635 2°54.891 2 39 20.2 101100 48
2010-07-02 06:49:50 51°28.656 2°54.893 2 276 20.2 101100 48
2010-07-02 06:49:55 51°28.676 2°54.894 1.8 242 20.2 101100 48
2010-07-02 06:50:00 51°28.696 2°54.896 2 285 20.2 101100 48
2010-07-02 06:50:05 51°28.716 2°54.897 1.3 39 20.2 101100 48
2010-07-02 06:50:10 51°28.736 2°54.899 1.6 286 20.2 101100 48
2010-07-02 06:50:16 51°28.76 2°54.9 1.1 238 20.2 101100 48
2010-07-02 06:50:20 51°28.776 2°54.902 0.9 281 20.2 101110 48
2010-07-02 06:50:25 51°28.796 2°54.903 0.9 241 20.2 101110 48
2010-07-02 06:50:30 51°28.816 2°54.905 0.5 282 20.2 101100 48
2010-07-02 06:50:35 51°28.836 2°54.906 0.4 237 20.2 101100 48
2010-07-02 06:50:40 51°28.856 2°54.908 0.3 25 20.2 101100 48
2010-07-02 06:50:45 51°28.876 2°54.909 0.7 40 20.2 101100 48
2010-07-02 06:50:50 51°28.896 2°54.911 1.4 280 20.2 101110 48
2010-07-02 06:50:55 51°28.916 2°54.913 0.8 34 20.2 101110 48
2010-07-02 06:51:00 51°28.936 2°54.914 1.2 281 20.2 101100 49
2010-07-02 06:51:05 51°28.956 2°54.915 1.6 38 20.2 101100 49
2010-07-02 06:51:10 51°28.976 2°54.915 1.4 276 20.2 101100 48
2010-07-02 06:51:16 51°29 2°54.917 1.3 35 20.2 101100 48
2010-07-02 06:51:20 51°29.015 2°54.917 1.9 281 20.2 101110 48
2010-07-02 06:51:25 51°29.035 2°54.918 1.9 40 20.2 101110 48
2010-07-02 06:51:30 51°29.055 2°54.919 1.9 286 20.2 101110 49
2010-07-02 06:51:35 51°29.075 2°54.92 1.8 39 20.2 101110 49
2010-07-02 06:51:40 51°29.095 2°54.922 1.6 281 20.2 101100 48
2010-07-02 06:51:45 51°29.115 2°54.923 2 36 20.2 101100 48
2010-07-02 06:51:50 51°29.135 2°54.924 1.7 283 20.2 101100 48
2010-07-02 06:51:55 51°29.155 2°54.925 1.4 34 20.2 101100 48
2010-07-02 06:52:00 51°29.175 2°54.926 1.3 275 20.2 101110 48
2010-07-02 06:52:05 51°29.195 2°54.928 1.4 35 20.2 101110 48
2010-07-02 06:52:10 51°29.214 2°54.928 1.4 285 20.2 101110 47
2010-07-02 06:52:15 51°29.234 2°54.929 1.3 33 20.2 101110 47
2010-07-02 06:52:20 51°29.254 2°54.93 0.5 283 20.2 101110 48
2010-07-02 06:52:25 51°29.274 2°54.931 0.7 238 20.2 101110 48
2010-07-02 06:52:30 51°29.294 2°54.932 0.7 277 20.2 101110 48
2010-07-02 06:52:35 51°29.314 2°54.932 0.7 232 20.2 101110 48
2010-07-02 06:52:40 51°29.334 2°54.933 0.7 25 20.2 101110 48
2010-07-02 06:52:45 51°29.354 2°54.934 0.7 240 20.2 101110 48
2010-07-02 06:52:50 51°29.373 2°54.934 0.7 276 20.2 101110 48
2010-07-02 06:52:55 51°29.393 2°54.935 0.7 35 20.2 101110 48
2010-07-02 06:53:00 51°29.413 2°54.936 0.8 285 20.2 101110 47
2010-07-02 06:53:05 51°29.433 2°54.937 1.4 317 20.2 101110 47
2010-07-02 06:53:10 51°29.452 2°54.94 1.2 282 20.2 101110 49
2010-07-02 06:53:16 51°29.477 2°54.94 2 318 20.2 101110 49
2010-07-02 06:53:20 51°29.493 2°54.942 2.1 282 20.2 101110 48
2010-07-02 06:53:25 51°29.513 2°54.942 2.1 320 20.2 101110 48
2010-07-02 06:53:30 51°29.533 2°54.944 2.1 282 20.2 101110 47
2010-07-02 06:53:35 51°29.553 2°54.945 2 319 20.2 101110 47
2010-07-02 06:53:40 51°29.574 2°54.946 2 284 20.2 101110 47
2010-07-02 06:53:45 51°29.594 2°54.948 2.1 319 20.2 101110 47
2010-07-02 06:53:50 51°29.614 2°54.95 1.7 285 20.2 101110 48
2010-07-02 06:53:55 51°29.634 2°54.952 1.9 318 20.2 101110 48
2010-07-02 06:54:00 51°29.654 2°54.954 1.7 280 20.2 101110 48
2010-07-02 06:54:05 51°29.675 2°54.955 1.5 41 20.2 101110 48
2010-07-02 06:54:10 51°29.696 2°54.955 1.7 280 20.2 101110 49
2010-07-02 06:54:16 51°29.719 2°54.959 1.8 316 20.2 101110 49
2010-07-02 06:54:20 51°29.735 2°54.961 1.6 279 20.2 101110 47
2010-07-02 06:54:25 51°29.755 2°54.963 1.8 32 20.2 101110 47
2010-07-02 06:54:30 51°29.775 2°54.965 1.7 282 20.2 101110 48
2010-07-02 06:54:35 51°29.795 2°54.966 1.4 319 20.2 101110 48
2010-07-02 06:54:40 51°29.815 2°54.969 1.4 24 20.2 101110 47
2010-07-02 06:54:45 51°29.835 2°54.973 1.3 319 20.2 101110 47
2010-07-02 06:54:50 51°29.856 2°54.976 1.3 283 20.2 101110 48
2010-07-02 06:54:55 51°29.876 2°54.979 0.8 320 20.2 101110 48
2010-07-02 06:55:00 51°29.896 2°54.982 1.7 285 20.1 101110 48
2010-07-02 06:55:05 51°29.916 2°54.985 1.5 323 20.1 101110 48
2010-07-02 06:55:10 51°29.936 2°54.987 1.6 285 20.2 101120 47
2010-07-02 06:55:16 51°29.961 2°54.991 1.8 320 20.2 101120 47
2010-07-02 06:55:20 51°29.977 2°54.993 1.4 284 20.1 101120 47
2010-07-02 06:55:25 51°29.997 2°54.996 1.7 323 20.1 101120 47
2010-07-02 06:55:30 51°30.018 2°55 1.9 284 20.1 101120 47
2010-07-02 06:55:35 51°30.038 2°55.003 2 41 20.1 101120 47
2010-07-02 06:55:40 51°30.058 2°55.006 1.8 318 20.1 101120 46
2010-07-02 06:55:45 51°30.079 2°55.01 1.7 322 20.1 101120 46
2010-07-02 06:55:50 51°30.099 2°55.013 1.8 277 20.1 101120 48
2010-07-02 06:55:55 51°30.12 2°55.017 1.8 321 20.1 101120 48
2010-07-02 06:56:00 51°30.14 2°55.02 1.8 281 20.1 101120 49
2010-07-02 06:56:05 51°30.161 2°55.024 2.2 323 20.1 101120 49
2010-07-02 06:56:10 51°30.181 2°55.029 1.7 282 20.1 101120 48
2010-07-02 06:56:15 51°30.201 2°55.032 1.8 318 20.1 101120 48
2010-07-02 06:56:20 51°30.222 2°55.036 1.9 282 20.1 101120 47
2010-07-02 06:56:25 51°30.242 2°55.039 1.5 320 20.1 101120 47
2010-07-02 06:56:30 51°30.263 2°55.043 1.7 285 20.1 101120 47
2010-07-02 06:56:35 51°30.284 2°55.046 1.4 320 20.1 101120 47
2010-07-02 06:56:40 51°30.304 2°55.05 1.7 319 20.1 101120 47
2010-07-02 06:56:45 51°30.324 2°55.053 1.7 321 20.1 101120 47
2010-07-02 06:56:50 51°30.345 2°55.057 1.4 276 20.1 101120 47
2010-07-02 06:56:55 51°30.366 2°55.061 1.7 321 20.1 101120 47
2010-07-02 06:57:00 51°30.386 2°55.064 2.2 276 20.1 101120 48
2010-07-02 06:57:05 51°30.406 2°55.068 2 323 20.1 101120 48
2010-07-02 06:57:10 51°30.427 2°55.071 2 276 20.1 101120 48
2010-07-02 06:57:15 51°30.447 2°55.075 2 321 20.1 101120 48
2010-07-02 06:57:20 51°30.468 2°55.078 1.8 283 20.1 101120 48
2010-07-02 06:57:25 51°30.488 2°55.081 2.2 322 20.1 101120 48
2010-07-02 06:57:30 51°30.509 2°55.085 2.2 280 20.1 101120 48
2010-07-02 06:57:35 51°30.529 2°55.088 2.4 323 20.1 101120 48
2010-07-02 06:57:40 51°30.549 2°55.092 2.3 278 20.1 101120 48
2010-07-02 06:57:45 51°30.57 2°55.096 2.3 322 20.1 101120 48
2010-07-02 06:57:50 51°30.59 2°55.1 2.1 276 20.1 101120 48
2010-07-02 06:57:55 51°30.61 2°55.106 2 321 20.1 101120 48
2010-07-02 06:58:00 51°30.63 2°55.111 2.3 283 20.1 101120 49
2010-07-02 06:58:05 51°30.651 2°55.117 2.1 325 20.1 101120 49
2010-07-02 06:58:10 51°30.671 2°55.122 1.9 277 20.1 101120 49
2010-07-02 06:58:15 51°30.691 2°55.128 2 327 20.1 101120 49
2010-07-02 06:58:20 51°30.711 2°55.134 1.8 285 20 101120 48
2010-07-02 06:58:25 51°30.731 2°55.14 2.1 325 20 101120 48
2010-07-02 06:58:30 51°30.751 2°55.146 1.9 278 20 101120 49
2010-07-02 06:58:35 51°30.771 2°55.153 2 326 20 101120 49
2010-07-02 06:58:40 51°30.792 2°55.158 1.8 326 20 101120 48
2010-07-02 06:58:45 51°30.812 2°55.165 2 326 20 101120 48
2010-07-02 06:58:50 51°30.832 2°55.171 2.1 286 20 101120 48
2010-07-02 06:58:55 51°30.852 2°55.177 1.9 327 20 101120 48
2010-07-02 06:59:00 51°30.872 2°55.184 1.4 284 20 101120 49
2010-07-02 06:59:05 51°30.892 2°55.19 1.7 328 20 101120 49
2010-07-02 06:59:10 51°30.912 2°55.198 1.9 283 20 101130 49
2010-07-02 06:59:15 51°30.933 2°55.205 1.4 331 20 101130 49
2010-07-02 06:59:20 51°30.953 2°55.213 1.7 282 20 101120 49
2010-07-02 06:59:25 51°30.973 2°55.22 1.6 328 20 101120 49
2010-07-02 06:59:30 51°30.993 2°55.229 1.5 279 20 101120 49
2010-07-02 06:59:35 51°31.013 2°55.237 1.5 325 20 101120 49
2010-07-02 06:59:40 51°31.033 2°55.245 1.3 327 20 101120 48
2010-07-02 06:59:45 51°31.053 2°55.253 1.6 324 20 101120 48
2010-07-02 06:59:50 51°31.074 2°55.261 1.1 282 20 101120 49
2010-07-02 06:59:55 51°31.094 2°55.269 1.4 328 20 101120 49
2010-07-02 07:00:00 51°31.114 2°55.278 1 278 20 101130 48
2010-07-02 07:00:05 51°31.134 2°55.286 1.5 329 20 101130 48
2010-07-02 07:00:10 51°31.154 2°55.294 1.9 279 20 101130 48
2010-07-02 07:00:15 51°31.175 2°55.301 1.8 326 20 101130 48
2010-07-02 07:00:20 51°31.195 2°55.31 1.8 281 20 101120 48
2010-07-02 07:00:25 51°31.215 2°55.317 1.8 326 20 101120 48
2010-07-02 07:00:30 51°31.235 2°55.325 1.8 283 20 101130 48
2010-07-02 07:00:35 51°31.255 2°55.333 1.7 322 20 101130 48
2010-07-02 07:00:40 51°31.275 2°55.341 1.9 284 20 101130 48
2010-07-02 07:00:45 51°31.296 2°55.348 2 322 20 101130 48
2010-07-02 07:00:50 51°31.316 2°55.356 1.9 278 20 101130 48
2010-07-02 07:00:55 51°31.336 2°55.364 2.1 322 20 101130 48